Airfield :
LOGIN :

Register | Disclaimer

   EN    FR    IT 

 










Legend :    VFR   Marginal VFR   IFR   Intensive IFR   Very Intensive IFR
Visi :
Ceiling :
>= 8 km
>= 3000ft
5 to 8 km
1000 to 3000 ft
1500m to 5 km
500 to 1000 ft
800 to 1500m
200 to 500 ft
< 800m
< 200 ft
Symbols :   Thunderstorms  Fog  Heavy snow  Heavy precipitations  Wind > 20 kt
SIGMETs :     Misc.  Thunderstorms  Icing  Turbulence  Mountain Waves  Volcanic Ashes






- Airport Elevation : 13 ft
- IATA code : CAG


LIEE - Cagliari Elmas

CURRENT METAR :
  • 021820Z 17010KT CAVOK 26/21 Q1014

EXPIRED METARs :
  • 021750Z 17009KT CAVOK 26/20 Q1014
  • 021720Z 17009KT CAVOK 26/20 Q1015
  • 021650Z 18008KT CAVOK 27/20 Q1015
  • 021620Z 18007KT 150V210 CAVOK 27/20 Q1015
  • 021550Z 17006KT CAVOK 26/19 Q1015

TAF TAF LIEE
Valid from the 02 at 18:00 until the 03 at 18:00 UTC


021700Z 0218/0318 VRB05KT 9999 FEW040
BECMG 0309/0311 16012KT



MET'MAP, your aeronautical weather chart ! - Copyright ORBIFLY December 2007 - Disclaimer

ORBIFLY MET'MAP TEAM :

Programming & Development : Alexandra Zaïnal
Concept & original design : Baudouin d'Aumeries
Assistance for programming : Marc-Olivier Méhu
Technical & hardware support : Manuel Goepfert

Contact : metmap@orbifly.com




SOURCES & CREDITS :

   NOAA